If you wish to contribute or participate in the discussions about articles you are invited to join SKYbrary as a registered user

 Actions

Kuwait International

From SKYbrary Wiki

OKBK
Airport
ICAO: OKBK
Summary
Name Kuwait International
Region Asia and Pacific
Territory Kuwait KW.gif
Location Kuwait
Serving
Coordinates 29° 13' 45.80" N, 47° 58' 47.74" E
Runways
Designator Length Width Surface ROPS
15L/33R 3500 m11,482.94 ft
45 m147.638 ft
ASP yes/yes
15R/33L 3400 m11,154.856 ft
45 m147.638 ft
CON yes/yes


METAR
Observation OKBK 221000Z 20003KT CAVOK 23/M02 Q1020 NOSIG
Station Kuwait Internationalairport
Date/Time 22 November 2019 10:00:00
Wind direction 200°
Wind speed 03 kts
Lowest cloud amount clouds and visibility OK
Temperature 23°C
Dew point
Humidity 18%
QNH 1020 hPa
Weather condition n/a

LOS
Tag(s) Parallel Runway Operation
WX
Tag(s) Fog

Kuwait International Airport

ICAO: OKBK IATA: KWI

Description

International airport serving...

Climatology

Hot Desert Climate (Köppen climate classification BWh) - Hot desert climates are typically found in the subtropics where there is unbroken sunshine for the whole year due to the stable descending air and high pressure, little or no precipitation. Maximum temperatures of 40°C to 45°C are not uncommon, particularly during the warmer months of the year.

Maps

Terrain

Loading map...

Airport Layout

Loading map...



Accidents & Serious Incidents at or in vicinity of OKBK

None on SKYbrary